Location: Tierra Monte Subdivision
(35.2092°N, 106.4864°W)
Time: 03:26:48
(UTC+00:00)

CZ-2C R/B - Pass Details

Date: 30 March 2020
Orbit: 668 x 784 km, 98.2° (Epoch: 29 May)

Event Time Altitude Azimuth Distance (km) Brightness Sun altitude
Rises 10:26:02 0° 27° (NNE) 3,038 6.4 -29.7°
Reaches altitude 10° 10:28:40 10° 41° (NE) 2,109 5.6 -29.2°
Maximum altitude 10:32:24 24° 96° (E) 1,367 4.3 -28.5°
Enters shadow 10:35:25 13° 145° (SE) 1,879 4.6 -28.0°
